Kuiper-00248

operational
NORAD ID: 67153 Int'l Des: 2025-301 Owner: KUIP Country: US Constellation: kuiper
LEOCIRCULAR

关于 Kuiper-00248

正在加载描述...

实时位置

正在加载3D地球...

即将过境

高度历史

Altitude vs Time

uPlot chart will show altitude changes over time

两行轨道根数

1 67153U 25301W 26034.56448743 .00034760 00000-0 98059-3 0 9993
2 67153 51.8652 230.5075 0010772 270.9719 89.0033 15.36020485 8651
Epoch: Feb 3, 2026 • Age: 8 hours

当前状态

高度 465.0 km
速度 7.64 km/s
星下点 33.63°N, 162.89°E
发射日期 Dec 16, 2025
运行时间 0.1 years
类型 internet

技术详情

分类 Payload
质量 490.00 kg
干质量 490.00 kg
总质量 490.00 kg
长度 1.80 m
直径 0.70 m
跨度 5.00 m
形状 Box + 2 pan
制造商 KUIP
平台类型 Kuiper
阶段状态 In Orbit
所有者/国家 KUIP/US

大型星座

Loading constellations...